Wind_Speed
25 24 22 21 20 20 19 18 17 17 17 17 16 16 15 14 13 12 12 12 11 10 10 9 9 9 10 11 12 12 12 12 12 13 14 15 16 18 19 21 23 25
25 24 23 22 21 20 19 19 18 18 18 18 18 17 16 15 13 13 13 13 12 11 10 10 10 10 11 12 13 13 13 13 13 14 15 16 17 18 20 22 24 26
27 26 24 23 21 20 20 20 20 19 19 19 19 18 17 15 14 14 14 14 13 12 11 11 11 11 12 12 13 13 13 13 14 15 16 17 18 19 20 22 24 26
28 27 25 24 22 22 22 22 21 21 20 20 20 19 18 16 16 15 15 15 14 13 12 12 12 12 13 13 14 15 15 15 15 16 17 18 19 19 21 23 25 27
30 28 27 25 25 25 24 23 22 22 22 22 21 20 19 18 17 17 17 16 15 14 14 13 13 14 15 15 16 16 17 17 17 18 19 19 20 20 22 23 26 28
31 30 29 28 27 26 25 24 24 24 24 24 22 21 20 19 19 18 18 17 16 15 15 15 16 16 17 17 17 18 18 19 19 19 20 20 21 21 23 25 27 29
32 31 30 29 28 27 26 26 27 27 26 26 24 23 21 21 20 20 19 18 17 17 17 17 18 18 19 19 19 19 20 20 20 21 21 21 21 22 24 26 28 29
32 31 30 30 29 28 28 29 29 28 28 27 25 24 23 22 22 21 20 19 18 19 19 19 19 20 20 20 21 21 21 21 21 22 22 22 22 23 25 27 28 29
33 32 32 31 31 30 31 31 31 30 30 28 27 25 24 23 23 22 22 20 20 20 20 21 21 21 21 22 22 22 22 22 22 22 23 23 23 24 26 28 29 29
36 35 34 34 33 32 32 32 32 32 31 30 28 26 25 24 24 24 23 22 22 22 22 22 22 22 23 23 23 23 23 22 22 23 24 24 25 26 27 28 29 29
39 38 37 35 34 34 34 34 33 33 32 31 29 27 26 26 26 25 25 24 24 24 25 25 24 24 24 24 24 23 22 22 22 23 24 25 27 27 28 29 29 29
41 40 38 37 36 35 35 35 35 35 34 32 31 29 28 28 27 27 26 26 27 27 27 27 26 25 25 24 23 22 22 23 23 23 24 26 27 28 29 29 29 30
43 42 40 39 38 37 37 38 37 36 35 34 32 31 30 29 28 28 28 28 28 27 28 27 27 26 25 24 23 23 23 24 24 25 26 27 28 28 28 29 30 31
43 42 41 41 40 40 40 40 39 38 36 35 34 33 32 30 30 30 29 29 28 28 28 28 27 26 25 25 24 24 25 25 26 27 27 28 28 28 28 29 31 32
43 43 43 43 43 43 43 42 40 39 37 36 35 34 33 32 31 30 30 29 28 28 28 27 26 26 26 25 25 26 26 27 27 27 27 28 28 29 30 31 32 34
45 45 45 45 46 46 44 43 42 41 39 38 37 35 34 34 33 31 30 29 29 29 28 27 26 26 27 27 27 27 28 28 28 28 28 28 29 30 32 32 34 36
46 47 47 47 47 47 47 46 44 43 42 40 39 37 36 35 34 32 31 31 30 30 28 27 27 28 28 28 28 29 29 30 30 29 29 29 30 31 33 34 35 37
47 47 48 48 48 48 48 48 47 45 44 43 41 40 38 37 36 34 34 33 32 31 30 29 30 30 30 29 30 30 31 31 31 31 30 30 31 33 34 35 37 38
46 46 47 48 49 49 49 49 49 49 47 45 43 41 40 39 38 36 36 36 35 33 33 32 31 31 31 31 31 31 32 33 32 32 32 32 33 34 35 37 38 37
43 44 44 46 47 49 49 50 51 50 49 47 45 43 42 41 39 38 37 37 36 36 35 34 33 33 33 32 32 33 33 33 33 33 33 34 35 36 37 38 38 36
39 40 41 43 45 47 49 50 51 50 50 48 46 45 44 42 40 39 38 37 37 37 36 36 35 34 33 33 33 34 34 34 34 33 34 35 36 37 39 39 37 33
37 38 39 40 42 44 47 49 49 50 49 48 47 45 44 42 41 40 38 37 36 37 37 37 36 35 34 34 35 35 35 35 34 35 35 36 37 39 40 38 35 30
35 36 37 38 39 41 44 45 47 48 48 47 46 45 43 42 41 39 38 37 37 38 38 37 36 35 35 35 36 36 36 36 36 36 37 37 39 40 39 36 32 27
33 34 34 35 37 39 40 42 44 45 46 46 46 44 43 41 40 39 39 38 38 38 38 37 36 36 36 36 37 38 37 37 37 37 37 38 40 40 38 34 29 25
31 31 32 34 36 38 39 40 42 43 45 46 46 45 43 41 40 40 40 40 39 39 38 37 37 37 37 38 38 39 39 38 39 39 39 39 40 38 35 31 27 25
33 31 31 34 36 38 39 40 41 42 44 46 46 46 44 43 42 42 42 41 40 39 38 38 37 38 38 39 39 39 40 40 40 40 40 40 39 37 33 30 26 25
Wind_Direction
212 211 210 210 212 216 221 224 225 226 227 226 227 228 227 227 227 227 228 230 232 235 244 259 274 289 301 308 313 316 319 323 327 330 334 338 339 342 344 346 347 348
214 214 213 212 213 216 221 224 225 226 227 227 229 230 228 227 227 228 231 235 238 242 250 263 277 292 301 307 310 313 315 317 319 323 326 330 332 336 338 340 343 344
215 215 215 214 214 215 218 221 223 225 225 226 228 230 229 227 226 228 233 239 245 251 259 270 282 292 299 305 310 313 313 313 314 316 319 322 325 329 333 336 339 340
216 215 215 213 212 213 214 217 219 221 222 224 227 230 230 228 228 232 237 243 251 257 265 274 283 290 297 303 309 312 313 312 311 311 312 315 319 324 329 332 335 336
216 215 213 212 211 212 213 214 215 217 219 222 225 229 231 232 234 239 243 248 254 260 268 275 283 289 295 300 305 309 311 310 309 308 308 311 315 320 325 329 331 333
217 215 213 212 212 212 213 213 214 215 216 219 223 228 232 235 240 245 249 254 259 265 272 279 284 289 293 297 300 303 304 305 305 305 306 309 313 318 323 326 328 329
221 219 217 214 212 211 211 212 214 215 217 220 223 227 231 236 241 247 252 258 265 270 276 281 286 289 292 294 297 298 299 300 301 303 306 310 314 318 321 323 325 326
225 222 219 217 214 212 211 213 215 218 220 223 225 227 231 236 242 248 254 261 267 272 277 281 285 288 291 293 294 295 297 298 300 302 306 311 316 318 319 321 323 324
227 224 221 219 216 214 214 215 216 219 223 225 228 229 232 237 244 250 257 263 268 274 278 281 285 288 290 292 294 295 296 298 301 304 308 313 315 316 317 319 320 321
228 226 223 221 219 217 217 218 219 221 224 227 230 231 234 240 246 253 259 265 270 275 279 282 285 287 290 292 293 295 297 301 304 308 310 312 312 313 315 316 317 319
228 229 228 226 223 221 221 221 222 224 226 229 232 235 237 242 249 255 261 267 271 275 278 281 283 286 289 291 294 297 302 305 307 308 309 309 310 311 313 314 316 319
229 231 232 231 228 225 224 224 224 226 228 231 234 238 241 245 251 257 263 269 273 276 279 280 283 285 287 290 295 301 305 307 307 306 306 306 307 310 312 313 316 319
230 231 233 233 231 229 228 227 227 228 229 232 235 239 243 248 253 259 265 269 273 277 279 280 283 285 287 291 297 302 304 304 304 304 304 305 307 309 311 313 316 319
229 231 233 234 234 232 231 231 231 231 232 233 236 240 244 249 254 260 265 269 273 275 278 280 282 284 287 293 299 302 302 302 303 304 305 306 307 309 310 313 316 319
226 229 232 234 235 235 235 235 235 235 236 237 238 241 245 249 254 259 263 268 272 275 277 279 280 283 288 294 298 299 300 301 303 305 305 305 307 309 310 312 316 319
226 227 229 233 235 237 237 237 237 238 238 239 241 243 246 249 254 258 262 266 271 276 277 277 279 283 289 293 296 297 298 300 302 303 303 304 306 307 309 313 316 320
231 228 227 230 233 236 237 237 238 239 239 241 242 244 246 250 254 258 260 264 270 275 276 276 279 283 288 291 293 294 296 298 299 300 301 303 304 306 309 313 316 320
236 234 231 229 230 233 236 237 238 238 239 241 242 244 247 250 254 257 260 263 269 273 274 275 278 283 287 289 290 291 293 295 296 298 300 301 303 306 309 313 316 320
239 239 237 234 231 231 233 235 237 238 239 240 242 244 247 250 253 256 260 264 268 271 272 274 278 282 285 287 287 288 290 292 294 296 298 299 303 306 309 313 317 320
240 241 241 239 236 233 232 233 236 237 239 240 242 244 246 249 252 256 259 263 266 269 271 274 277 281 284 285 285 285 287 289 292 294 296 299 303 306 309 313 316 318
240 242 243 242 241 237 235 234 235 236 238 240 241 243 246 248 251 254 257 261 264 268 271 273 276 280 282 282 282 283 285 287 289 291 295 300 303 305 309 313 315 315
238 241 243 243 243 241 239 238 237 237 238 239 241 243 245 248 250 253 256 259 263 267 270 272 276 279 279 278 279 281 283 285 288 291 296 299 302 305 309 312 312 310
236 239 241 242 243 243 242 242 241 240 239 240 241 243 245 247 249 252 255 258 261 264 268 271 274 275 275 276 278 279 281 284 287 291 295 299 302 305 307 309 308 304
236 238 240 241 242 243 244 244 244 243 241 241 242 243 244 246 249 252 255 257 260 263 266 269 270 271 271 274 276 278 280 284 287 291 295 299 302 303 304 304 302 299
236 237 239 240 242 243 245 245 245 245 243 243 243 243 244 246 249 252 255 257 260 262 264 265 266 267 269 272 274 277 280 284 287 291 296 299 300 301 300 298 295 295
234 235 236 237 239 241 243 245 245 245 244 244 244 244 245 247 249 252 255 257 259 261 262 262 263 265 268 271 273 277 281 284 288 291 295 297 298 297 295 292 292 295
Height
10988 10989 10991 10992 10994 10995 10997 10998 10999 11000 11001 11002 11003 11003 11004 11004 11005 11006 11007 11008 11009 11009 11009 11009 11010 11010 11009 11009 11009 11009 11008 11008 11007 11006 11006 11005 11004 11004 11003 11002 11000 10999
10987 10989 10990 10991 10993 10994 10996 10997 10998 10999 11000 11001 11002 11002 11003 11004 11005 11006 11006 11007 11008 11009 11009 11009 11009 11009 11009 11009 11009 11008 11008 11007 11006 11006 11005 11005 11004 11003 11002 11001 10999 10998
10986 10987 10988 10990 10992 10993 10995 10996 10997 10998 10999 11000 11001 11002 11003 11004 11005 11005 11006 11006 11007 11008 11009 11009 11009 11009 11009 11008 11008 11007 11007 11006 11006 11005 11004 11004 11003 11002 11001 11000 10998 10997
10983 10985 10987 10989 10990 10991 10993 10994 10996 10997 10998 10999 11000 11001 11003 11004 11004 11005 11005 11006 11006 11007 11008 11008 11008 11008 11008 11007 11007 11006 11006 11006 11005 11004 11003 11003 11002 11001 11000 10999 10998 10996
10981 10983 10985 10987 10988 10989 10991 10992 10994 10996 10997 10998 10999 11001 11002 11003 11004 11004 11004 11005 11006 11006 11007 11007 11007 11007 11007 11006 11006 11005 11005 11004 11004 11003 11002 11001 11001 11000 10999 10998 10997 10995
10979 10981 10983 10984 10986 10987 10989 10991 10992 10993 10995 10996 10998 10999 11000 11002 11003 11003 11003 11004 11005 11005 11006 11006 11006 11006 11006 11005 11005 11005 11004 11003 11003 11002 11001 11000 11000 10999 10998 10997 10996 10994
10977 10979 10981 10982 10983 10985 10987 10988 10990 10991 10993 10994 10996 10997 10999 11000 11001 11002 11002 11003 11003 11004 11004 11005 11005 11004 11004 11004 11004 11003 11003 11002 11001 11000 11000 10999 10998 10998 10997 10995 10994 10993
10976 10977 10979 10981 10982 10983 10985 10986 10987 10989 10990 10992 10994 10995 10997 10998 10999 11000 11001 11002 11002 11003 11003 11003 11003 11003 11003 11002 11002 11002 11001 11001 11000 10999 10998 10998 10997 10996 10995 10994 10993 10991
10974 10975 10977 10978 10980 10981 10982 10983 10985 10986 10988 10990 10992 10993 10995 10996 10997 10998 10999 11000 11001 11001 11002 11001 11002 11001 11001 11001 11000 11000 11000 10999 10998 10997 10997 10996 10996 10995 10994 10992 10991 10989
10971 10972 10973 10975 10977 10979 10980 10981 10983 10984 10986 10988 10990 10992 10993 10994 10995 10996 10997 10998 10999 10999 11000 11000 11000 10999 10999 10999 10998 10998 10998 10997 10997 10996 10995 10994 10993 10993 10992 10990 10989 10988
10967 10969 10970 10973 10975 10977 10978 10979 10981 10982 10984 10986 10988 10990 10991 10992 10993 10994 10995 10996 10996 10997 10997 10998 10998 10998 10997 10997 10996 10996 10996 10996 10995 10994 10993 10992 10990 10990 10989 10988 10987 10986
10964 10966 10968 10970 10973 10974 10976 10977 10978 10980 10982 10983 10986 10987 10988 10990 10991 10992 10993 10993 10994 10994 10995 10995 10996 10996 10995 10995 10995 10994 10994 10993 10993 10992 10991 10990 10988 10987 10986 10986 10985 10984
10961 10963 10966 10968 10970 10971 10973 10974 10975 10977 10979 10981 10983 10984 10986 10987 10989 10990 10990 10991 10992 10992 10992 10993 10993 10993 10993 10992 10992 10992 10991 10991 10990 10989 10988 10987 10987 10986 10984 10983 10982 10981
10958 10961 10964 10965 10967 10968 10969 10970 10972 10974 10977 10978 10980 10981 10983 10985 10986 10987 10988 10988 10989 10990 10990 10990 10990 10990 10990 10989 10989 10989 10989 10988 10987 10986 10986 10984 10984 10983 10983 10982 10980 10978
10956 10958 10960 10962 10963 10964 10966 10967 10970 10972 10974 10976 10977 10979 10981 10982 10983 10984 10985 10986 10987 10987 10987 10988 10988 10988 10987 10987 10987 10986 10986 10985 10985 10984 10983 10982 10981 10980 10980 10979 10978 10976
10952 10954 10956 10958 10960 10961 10963 10965 10967 10969 10971 10972 10974 10976 10977 10979 10980 10981 10983 10983 10984 10984 10985 10985 10985 10985 10985 10984 10984 10984 10983 10983 10982 10981 10981 10980 10979 10978 10977 10976 10975 10974
10947 10950 10952 10954 10956 10958 10960 10962 10964 10965 10967 10969 10971 10972 10974 10975 10977 10978 10979 10980 10981 10981 10982 10983 10983 10983 10982 10982 10982 10981 10980 10980 10979 10978 10978 10977 10977 10975 10974 10973 10972 10971
10943 10946 10948 10950 10952 10954 10957 10958 10960 10961 10963 10965 10967 10969 10971 10972 10973 10975 10976 10977 10977 10978 10979 10979 10980 10980 10980 10980 10979 10978 10977 10976 10976 10975 10975 10974 10974 10972 10971 10970 10969 10968
10939 10942 10944 10946 10948 10950 10953 10954 10956 10957 10959 10961 10963 10966 10967 10968 10970 10971 10972 10973 10973 10974 10975 10976 10976 10977 10976 10976 10976 10975 10974 10973 10972 10972 10972 10971 10970 10969 10968 10967 10966 10965
10935 10938 10940 10942 10944 10946 10948 10949 10951 10953 10955 10957 10960 10962 10963 10964 10966 10968 10968 10969 10969 10970 10971 10972 10973 10973 10973 10973 10972 10971 10970 10970 10969 10969 10968 10967 10967 10966 10965 10964 10963 10962
10932 10934 10936 10938 10940 10942 10944 10945 10946 10949 10951 10954 10956 10957 10958 10960 10962 10964 10964 10965 10966 10966 10967 10968 10969 10969 10969 10969 10968 10967 10966 10966 10966 10965 10965 10964 10963 10962 10961 10961 10960 10959
10928 10930 10932 10934 10936 10938 10939 10940 10943 10945 10947 10949 10951 10952 10954 10956 10957 10959 10961 10962 10963 10963 10963 10964 10965 10965 10965 10964 10963 10963 10962 10962 10962 10962 10961 10961 10959 10958 10957 10957 10956 10955
10924 10926 10928 10930 10932 10933 10935 10936 10938 10941 10943 10945 10946 10948 10950 10951 10953 10955 10957 10958 10959 10959 10959 10960 10961 10961 10960 10959 10959 10958 10958 10958 10958 10958 10958 10957 10956 10954 10954 10953 10953 10952
10921 10922 10924 10926 10927 10929 10930 10932 10934 10936 10939 10940 10942 10943 10945 10947 10949 10950 10952 10953 10954 10954 10956 10957 10957 10957 10956 10955 10955 10954 10954 10954 10954 10954 10954 10954 10952 10951 10950 10950 10949 10948
10917 10919 10920 10921 10923 10924 10926 10928 10929 10931 10934 10935 10937 10938 10940 10942 10944 10945 10946 10948 10949 10950 10951 10952 10952 10952 10952 10951 10950 10950 10950 10950 10950 10950 10950 10950 10948 10947 10946 10946 10945 10945
10913 10914 10915 10916 10918 10920 10921 10923 10925 10926 10928 10930 10932 10934 10936 10938 10939 10939 10941 10942 10944 10945 10947 10947 10948 10948 10947 10947 10946 10946 10946 10945 10945 10945 10946 10945 10944 10943 10942 10942 10941 10940